This is the latest recevied weather packets stored in our database for station/object SP6PWT-13. If no packets are shown the sender has not sent any weather packets the latest 1 day(s).
| Time | Temp. | Humidity | Pressure | Rain* | Wind** | Luminosity | Snow |
|---|---|---|---|---|---|---|---|
| 1778003507 | 21.11° C | 62% | 989 hPa | 0 mm | 2.68 m/s, 350° | 6 W/m² | - |
| 1778003205 | 21.67° C | 61% | 989 hPa | 0 mm | 4.02 m/s, 356° | 9 W/m² | - |
| 1778002905 | 21.67° C | 61% | 988.9 hPa | 0 mm | 4.02 m/s, 11° | 12 W/m² | - |
| 1778002604 | 21.67° C | 60% | 988.8 hPa | 0 mm | 2.68 m/s, 18° | 16 W/m² | - |
| 1778002304 | 22.22° C | 59% | 988.6 hPa | 0 mm | 4.02 m/s, 353° | 21 W/m² | - |
| 1778002003 | 22.22° C | 59% | 988.7 hPa | 0 mm | 5.81 m/s, 349° | 24 W/m² | - |
| 1778001703 | 22.78° C | 57% | 988.7 hPa | 0 mm | 3.58 m/s, 4° | 28 W/m² | - |
| 1778001402 | 22.78° C | 56% | 988.8 hPa | 0 mm | 4.02 m/s, 352° | 29 W/m² | - |
| 1778001101 | 23.33° C | 53% | 988.9 hPa | 0 mm | 7.15 m/s, 352° | 28 W/m² | - |
| 1778000800 | 24.44° C | 47% | 988.8 hPa | 0 mm | 4.92 m/s, 359° | 29 W/m² | - |
| 1778000499 | 24.44° C | 38% | 988.6 hPa | 0 mm | 1.34 m/s, 1° | 33 W/m² | - |
| 1778000199 | 25° C | 37% | 988.6 hPa | 0 mm | 2.24 m/s, 23° | 35 W/m² | - |
| 1777999899 | 25° C | 37% | 988.6 hPa | 0 mm | 3.13 m/s, 43° | 42 W/m² | - |
| 1777999598 | 25° C | 37% | 988.5 hPa | 0 mm | 4.92 m/s, 4° | 54 W/m² | - |
| 1777999298 | 25° C | 37% | 988.5 hPa | 0 mm | 3.13 m/s, 358° | 65 W/m² | - |
| 1777998998 | 25° C | 36% | 988.5 hPa | 0 mm | 2.24 m/s, 21° | 88 W/m² | - |
| 1777998698 | 25.56° C | 36% | 988.7 hPa | 0 mm | 1.79 m/s, 8° | 99 W/m² | - |
| 1777998397 | 25.56° C | 35% | 988.6 hPa | 0 mm | 2.24 m/s, 349° | 109 W/m² | - |
| 1777998097 | 25.56° C | 36% | 988.7 hPa | 0 mm | 1.34 m/s, 34° | 105 W/m² | - |
| 1777997797 | 26.11° C | 35% | 988.6 hPa | 0 mm | 2.68 m/s, 55° | 116 W/m² | - |
| 1777997496 | 26.11° C | 33% | 988.7 hPa | 0 mm | 1.34 m/s, 5° | 121 W/m² | - |
| 1777997195 | 26.67° C | 32% | 988.9 hPa | 0 mm | 1.79 m/s, 8° | 132 W/m² | - |
| 1777996895 | 26.11° C | 33% | 988.7 hPa | 0 mm | 0 m/s | 132 W/m² | - |
| 1777996595 | 26.11° C | 33% | 988.6 hPa | 0 mm | 1.34 m/s, 56° | 140 W/m² | - |
| 1777996294 | 26.11° C | 33% | 988.8 hPa | 0 mm | 1.34 m/s, 92° | 158 W/m² | - |
* Rain latest hour (hover to see other rain measurements)
** Current wind speed in m/s (hover to see current wind gust speed)